Year,Month,Day,Hour,Minute,Value (Times are PST for temperature in C)
2015,05,01,00,00,11.10
2015,05,01,00,01,10.90
2015,05,01,00,02,10.90
2015,05,01,00,03,10.90
2015,05,01,00,04,10.90
2015,05,01,00,05,10.90
2015,05,01,00,06,10.90
2015,05,01,00,07,10.90
2015,05,01,00,08,10.90
2015,05,01,00,09,10.90
2015,05,01,00,10,10.90
2015,05,01,00,11,10.90
2015,05,01,00,12,10.90
2015,05,01,00,13,10.90
2015,05,01,00,14,10.90
2015,05,01,00,15,10.90
2015,05,01,00,16,10.90
2015,05,01,00,17,10.90
2015,05,01,00,18,10.80
2015,05,01,00,19,10.70
2015,05,01,00,20,10.70
2015,05,01,00,21,10.60
2015,05,01,00,22,10.60
2015,05,01,00,23,10.50
2015,05,01,00,24,10.40
2015,05,01,00,25,10.40
2015,05,01,00,26,10.40
2015,05,01,00,27,10.40
2015,05,01,00,28,10.30
2015,05,01,00,29,10.30
2015,05,01,00,30,10.30
2015,05,01,00,31,10.20
2015,05,01,00,32,10.20
2015,05,01,00,33,10.20
2015,05,01,00,34,10.20
2015,05,01,00,35,10.20
2015,05,01,00,36,10.10
2015,05,01,00,37,10.10
2015,05,01,00,38,10.10
2015,05,01,00,39,10.10
2015,05,01,00,40,10.10
2015,05,01,00,41,10.10
2015,05,01,00,42,10.10
2015,05,01,00,43,10.10
2015,05,01,00,44,10.10
2015,05,01,00,45,10.10
2015,05,01,00,46,10.10
2015,05,01,00,47,10.00
2015,05,01,00,48,9.90
2015,05,01,00,49,9.90
2015,05,01,00,50,9.90
2015,05,01,00,51,9.90
2015,05,01,00,52,9.90
2015,05,01,00,53,9.90
2015,05,01,00,54,10.00
2015,05,01,00,55,10.10
2015,05,01,00,56,10.10
2015,05,01,00,57,10.20
2015,05,01,00,58,10.30
2015,05,01,00,59,10.40
2015,05,01,01,00,10.40
2015,05,01,01,01,10.40
2015,05,01,01,02,10.40
2015,05,01,01,03,10.40
2015,05,01,01,04,10.40
2015,05,01,01,05,10.40
2015,05,01,01,06,10.40
2015,05,01,01,07,10.40
2015,05,01,01,08,10.40
2015,05,01,01,09,10.40
2015,05,01,01,10,10.40
2015,05,01,01,11,10.40
2015,05,01,01,12,10.40
2015,05,01,01,13,10.40
2015,05,01,01,14,10.40
2015,05,01,01,15,10.40
2015,05,01,01,16,10.40
2015,05,01,01,17,10.40
2015,05,01,01,18,10.40
2015,05,01,01,19,10.40
2015,05,01,01,20,10.40
2015,05,01,01,21,10.40
2015,05,01,01,22,10.40
2015,05,01,01,23,10.30
2015,05,01,01,24,10.30
2015,05,01,01,25,10.20
2015,05,01,01,26,10.20
2015,05,01,01,27,10.20
2015,05,01,01,28,10.10
2015,05,01,01,29,10.10
2015,05,01,01,30,10.10
2015,05,01,01,31,10.10
2015,05,01,01,32,10.10
2015,05,01,01,33,10.10
2015,05,01,01,34,10.10
2015,05,01,01,35,10.10
2015,05,01,01,36,10.10
2015,05,01,01,37,10.10
2015,05,01,01,38,10.10
2015,05,01,01,39,10.10
2015,05,01,01,40,10.10
2015,05,01,01,41,10.10
2015,05,01,01,42,10.10
2015,05,01,01,43,10.10
2015,05,01,01,44,10.10
2015,05,01,01,45,10.10
2015,05,01,01,46,10.10
2015,05,01,01,47,10.10
2015,05,01,01,48,10.10
2015,05,01,01,49,10.10
2015,05,01,01,50,10.10
2015,05,01,01,51,10.10
2015,05,01,01,52,10.10
2015,05,01,01,53,10.10
2015,05,01,01,54,10.10
2015,05,01,01,55,10.10
2015,05,01,01,56,10.10
2015,05,01,01,57,10.10
2015,05,01,01,58,10.20
2015,05,01,01,59,10.20
2015,05,01,02,00,10.20
2015,05,01,02,01,10.20
2015,05,01,02,02,10.20
2015,05,01,02,03,10.20
2015,05,01,02,04,10.20
2015,05,01,02,05,10.20
2015,05,01,02,06,10.20
2015,05,01,02,07,10.20
2015,05,01,02,08,10.20
2015,05,01,02,09,10.20
2015,05,01,02,10,10.20
2015,05,01,02,11,10.20
2015,05,01,02,12,10.20
2015,05,01,02,13,10.20
2015,05,01,02,14,10.20
2015,05,01,02,15,10.20
2015,05,01,02,16,10.20
2015,05,01,02,17,10.20
2015,05,01,02,18,10.20
2015,05,01,02,19,10.20
2015,05,01,02,20,10.20
2015,05,01,02,21,10.20
2015,05,01,02,22,10.20
2015,05,01,02,23,10.20
2015,05,01,02,24,10.20
2015,05,01,02,25,10.20
2015,05,01,02,26,10.20
2015,05,01,02,27,10.20
2015,05,01,02,28,10.20
2015,05,01,02,29,10.20
2015,05,01,02,30,10.20
2015,05,01,02,31,10.20
2015,05,01,02,32,10.20
2015,05,01,02,33,10.20
2015,05,01,02,34,10.20
2015,05,01,02,35,10.20
2015,05,01,02,36,10.20
2015,05,01,02,37,10.20
2015,05,01,02,38,10.10
2015,05,01,02,39,10.10
2015,05,01,02,40,10.10
2015,05,01,02,41,10.20
2015,05,01,02,42,10.20
2015,05,01,02,43,10.20
2015,05,01,02,44,10.20
2015,05,01,02,45,10.20
2015,05,01,02,46,10.20
2015,05,01,02,47,10.10
2015,05,01,02,48,10.10
2015,05,01,02,49,10.10
2015,05,01,02,50,10.10
2015,05,01,02,51,10.10
2015,05,01,02,52,10.10
2015,05,01,02,53,10.10
2015,05,01,02,54,10.10
2015,05,01,02,55,10.10
2015,05,01,02,56,10.10
2015,05,01,02,57,10.10
2015,05,01,02,58,10.10
2015,05,01,02,59,10.10
2015,05,01,03,00,10.10
2015,05,01,03,01,10.10
2015,05,01,03,02,10.10
2015,05,01,03,03,10.10
2015,05,01,03,04,10.00
2015,05,01,03,05,9.90
2015,05,01,03,06,9.90
2015,05,01,03,07,9.90
2015,05,01,03,08,9.90
2015,05,01,03,09,10.00
2015,05,01,03,10,10.10
2015,05,01,03,11,10.10
2015,05,01,03,12,10.10
2015,05,01,03,13,10.10
2015,05,01,03,14,10.10
2015,05,01,03,15,10.10
2015,05,01,03,16,10.10
2015,05,01,03,17,10.10
2015,05,01,03,18,10.10
2015,05,01,03,19,10.10
2015,05,01,03,20,10.20
2015,05,01,03,21,10.20
2015,05,01,03,22,10.20
2015,05,01,03,23,10.20
2015,05,01,03,24,10.30
2015,05,01,03,25,10.30
2015,05,01,03,26,10.30
2015,05,01,03,27,10.40
2015,05,01,03,28,10.40
2015,05,01,03,29,10.40
2015,05,01,03,30,10.40
2015,05,01,03,31,10.40
2015,05,01,03,32,10.40
2015,05,01,03,33,10.40
2015,05,01,03,34,10.50
2015,05,01,03,35,10.60
2015,05,01,03,36,10.60
2015,05,01,03,37,10.60
2015,05,01,03,38,10.60
2015,05,01,03,39,10.60
2015,05,01,03,40,10.60
2015,05,01,03,41,10.60
2015,05,01,03,42,10.60
2015,05,01,03,43,10.60
2015,05,01,03,44,10.60
2015,05,01,03,45,10.60
2015,05,01,03,46,10.60
2015,05,01,03,47,10.60
2015,05,01,03,48,10.60
2015,05,01,03,49,10.60
2015,05,01,03,50,10.60
2015,05,01,03,51,10.60
2015,05,01,03,52,10.60
2015,05,01,03,53,10.50
2015,05,01,03,54,10.40
2015,05,01,03,55,10.40
2015,05,01,03,56,10.40
2015,05,01,03,57,10.40
2015,05,01,03,58,10.40
2015,05,01,03,59,10.40
2015,05,01,04,00,10.40
2015,05,01,04,01,10.40
2015,05,01,04,02,10.40
2015,05,01,04,03,10.40
2015,05,01,04,04,10.40
2015,05,01,04,05,10.40
2015,05,01,04,06,10.40
2015,05,01,04,07,10.40
2015,05,01,04,08,10.40
2015,05,01,04,09,10.40
2015,05,01,04,10,10.40
2015,05,01,04,11,10.40
2015,05,01,04,12,10.40
2015,05,01,04,13,10.40
2015,05,01,04,14,10.40
2015,05,01,04,15,10.40
2015,05,01,04,16,10.40
2015,05,01,04,17,10.40
2015,05,01,04,18,10.40
2015,05,01,04,19,10.40
2015,05,01,04,20,10.40
2015,05,01,04,21,10.40
2015,05,01,04,22,10.40
2015,05,01,04,23,10.40
2015,05,01,04,24,10.40
2015,05,01,04,25,10.30
2015,05,01,04,26,10.30
2015,05,01,04,27,10.30
2015,05,01,04,28,10.30
2015,05,01,04,29,10.30
2015,05,01,04,30,10.30
2015,05,01,04,31,10.30
2015,05,01,04,32,10.30
2015,05,01,04,33,10.20
2015,05,01,04,34,10.20
2015,05,01,04,35,10.10
2015,05,01,04,36,10.10
2015,05,01,04,37,10.00
2015,05,01,04,38,9.90
2015,05,01,04,39,9.90
2015,05,01,04,40,9.80
2015,05,01,04,41,9.80
2015,05,01,04,42,9.70
2015,05,01,04,43,9.70
2015,05,01,04,44,9.60
2015,05,01,04,45,9.50
2015,05,01,04,46,9.50
2015,05,01,04,47,9.40
2015,05,01,04,48,9.40
2015,05,01,04,49,9.30
2015,05,01,04,50,9.30
2015,05,01,04,51,9.30
2015,05,01,04,52,9.20
2015,05,01,04,53,9.20
2015,05,01,04,54,9.20
2015,05,01,04,55,9.20
2015,05,01,04,56,9.20
2015,05,01,04,57,9.10
2015,05,01,04,58,9.10
2015,05,01,04,59,9.00
2015,05,01,05,00,9.00
2015,05,01,05,01,9.00
2015,05,01,05,02,9.00
2015,05,01,05,03,9.00
2015,05,01,05,04,9.00
2015,05,01,05,05,8.90
2015,05,01,05,06,8.90
2015,05,01,05,07,8.90
2015,05,01,05,08,8.90
2015,05,01,05,09,8.80
2015,05,01,05,10,8.80
2015,05,01,05,11,8.80
2015,05,01,05,12,8.80
2015,05,01,05,13,8.80
2015,05,01,05,14,8.90
2015,05,01,05,15,8.90
2015,05,01,05,16,8.80
2015,05,01,05,17,8.80
2015,05,01,05,18,8.80
2015,05,01,05,19,8.80
2015,05,01,05,20,8.70
2015,05,01,05,21,8.70
2015,05,01,05,22,8.70
2015,05,01,05,23,8.70
2015,05,01,05,24,8.70
2015,05,01,05,25,8.70
2015,05,01,05,26,8.70
2015,05,01,05,27,8.70
2015,05,01,05,28,8.70
2015,05,01,05,29,8.70
2015,05,01,05,30,8.70
2015,05,01,05,31,8.70
2015,05,01,05,32,8.70
2015,05,01,05,33,8.70
2015,05,01,05,34,8.70
2015,05,01,05,35,8.70
2015,05,01,05,36,8.70
2015,05,01,05,37,8.70
2015,05,01,05,38,8.70
2015,05,01,05,39,8.70
2015,05,01,05,40,8.70
2015,05,01,05,41,8.70
2015,05,01,05,42,8.60
2015,05,01,05,43,8.60
2015,05,01,05,44,8.60
2015,05,01,05,45,8.60
2015,05,01,05,46,8.60
2015,05,01,05,47,8.60
2015,05,01,05,48,8.60
2015,05,01,05,49,8.60
2015,05,01,05,50,8.60
2015,05,01,05,51,8.60
2015,05,01,05,52,8.60
2015,05,01,05,53,8.60
2015,05,01,05,54,8.60
2015,05,01,05,55,8.60
2015,05,01,05,56,8.60
2015,05,01,05,57,8.60
2015,05,01,05,58,8.60
2015,05,01,05,59,8.50
2015,05,01,06,00,8.50
2015,05,01,06,01,8.50
2015,05,01,06,02,8.50
2015,05,01,06,03,8.40
2015,05,01,06,04,8.40
2015,05,01,06,05,8.40
2015,05,01,06,06,8.40
2015,05,01,06,07,8.40
2015,05,01,06,08,8.40
2015,05,01,06,09,8.30
2015,05,01,06,10,8.30
2015,05,01,06,11,8.30
2015,05,01,06,12,8.30
2015,05,01,06,13,8.20
2015,05,01,06,14,8.20
2015,05,01,06,15,8.20
2015,05,01,06,16,8.20
2015,05,01,06,17,8.20
2015,05,01,06,18,8.20
2015,05,01,06,19,8.20
2015,05,01,06,20,8.20
2015,05,01,06,21,8.20
2015,05,01,06,22,8.20
2015,05,01,06,23,8.20
2015,05,01,06,24,8.10
2015,05,01,06,25,8.10
2015,05,01,06,26,8.10
2015,05,01,06,27,8.10
2015,05,01,06,28,8.10
2015,05,01,06,29,8.10
2015,05,01,06,30,8.10
2015,05,01,06,31,8.10
2015,05,01,06,32,8.10
2015,05,01,06,33,8.10
2015,05,01,06,34,8.10
2015,05,01,06,35,8.10
2015,05,01,06,36,8.10
2015,05,01,06,37,8.10
2015,05,01,06,38,8.10
2015,05,01,06,39,8.10
2015,05,01,06,40,8.00
2015,05,01,06,41,8.00
2015,05,01,06,42,8.00
2015,05,01,06,43,8.00
2015,05,01,06,44,8.00
2015,05,01,06,45,8.00
2015,05,01,06,46,8.00
2015,05,01,06,47,8.00
2015,05,01,06,48,8.00
2015,05,01,06,49,8.00
2015,05,01,06,50,8.00
2015,05,01,06,51,8.00
2015,05,01,06,52,8.00
2015,05,01,06,53,8.00
2015,05,01,06,54,8.00
2015,05,01,06,55,8.00
2015,05,01,06,56,8.00
2015,05,01,06,57,8.00
2015,05,01,06,58,8.00
2015,05,01,06,59,8.10
2015,05,01,07,00,8.10
2015,05,01,07,01,8.10
2015,05,01,07,02,8.10
2015,05,01,07,03,8.20
2015,05,01,07,04,8.20
2015,05,01,07,05,8.20
2015,05,01,07,06,8.20
2015,05,01,07,07,8.30
2015,05,01,07,08,8.30
2015,05,01,07,09,8.30
2015,05,01,07,10,8.30
2015,05,01,07,11,8.30
2015,05,01,07,12,8.40
2015,05,01,07,13,8.40
2015,05,01,07,14,8.40
2015,05,01,07,15,8.40
2015,05,01,07,16,8.40
2015,05,01,07,17,8.50
2015,05,01,07,18,8.50
2015,05,01,07,19,8.50
2015,05,01,07,20,8.50
2015,05,01,07,21,8.50
2015,05,01,07,22,8.50
2015,05,01,07,23,8.50
2015,05,01,07,24,8.60
2015,05,01,07,25,8.60
2015,05,01,07,26,8.60
2015,05,01,07,27,8.60
2015,05,01,07,28,8.60
2015,05,01,07,29,8.60
2015,05,01,07,30,8.70
2015,05,01,07,31,8.70
2015,05,01,07,32,8.70
2015,05,01,07,33,8.70
2015,05,01,07,34,8.70
2015,05,01,07,35,8.80
2015,05,01,07,36,8.80
2015,05,01,07,37,8.80
2015,05,01,07,38,8.90
2015,05,01,07,39,8.90
2015,05,01,07,40,8.90
2015,05,01,07,41,9.00
2015,05,01,07,42,9.00
2015,05,01,07,43,9.00
2015,05,01,07,44,9.10
2015,05,01,07,45,9.10
2015,05,01,07,46,9.20
2015,05,01,07,47,9.20
2015,05,01,07,48,9.20
2015,05,01,07,49,9.30
2015,05,01,07,50,9.30
2015,05,01,07,51,9.40
2015,05,01,07,52,9.40
2015,05,01,07,53,9.50
2015,05,01,07,54,9.50
2015,05,01,07,55,9.60
2015,05,01,07,56,9.60
2015,05,01,07,57,9.70
2015,05,01,07,58,9.70
2015,05,01,07,59,9.70
2015,05,01,08,00,9.70
2015,05,01,08,01,9.70
2015,05,01,08,02,9.80
2015,05,01,08,03,9.80
2015,05,01,08,04,9.90
2015,05,01,08,05,9.90
2015,05,01,08,06,9.90
2015,05,01,08,07,9.90
2015,05,01,08,08,9.90
2015,05,01,08,09,10.10
2015,05,01,08,10,10.10
2015,05,01,08,11,10.10
2015,05,01,08,12,10.10
2015,05,01,08,13,10.20
2015,05,01,08,14,10.20
2015,05,01,08,15,10.30
2015,05,01,08,16,10.30
2015,05,01,08,17,10.40
2015,05,01,08,18,10.40
2015,05,01,08,19,10.50
2015,05,01,08,20,10.60
2015,05,01,08,21,10.60
2015,05,01,08,22,10.60
2015,05,01,08,23,10.70
2015,05,01,08,24,10.70
2015,05,01,08,25,10.80
2015,05,01,08,26,10.90
2015,05,01,08,27,10.90
2015,05,01,08,28,10.90
2015,05,01,08,29,10.90
2015,05,01,08,30,11.00
2015,05,01,08,31,11.10
2015,05,01,08,32,11.10
2015,05,01,08,33,11.20
2015,05,01,08,34,11.20
2015,05,01,08,35,11.30
2015,05,01,08,36,11.30
2015,05,01,08,37,11.40
2015,05,01,08,38,11.40
2015,05,01,08,39,11.50
2015,05,01,08,40,11.60
2015,05,01,08,41,11.60
2015,05,01,08,42,11.60
2015,05,01,08,43,11.60
2015,05,01,08,44,11.60
2015,05,01,08,45,11.60
2015,05,01,08,46,11.60
2015,05,01,08,47,11.60
2015,05,01,08,48,11.60
2015,05,01,08,49,11.60
2015,05,01,08,50,11.70
2015,05,01,08,51,11.70
2015,05,01,08,52,11.80
2015,05,01,08,53,11.80
2015,05,01,08,54,11.90
2015,05,01,08,55,12.00
2015,05,01,08,56,12.10
2015,05,01,08,57,12.20
2015,05,01,08,58,12.30
2015,05,01,08,59,12.30
2015,05,01,09,00,12.40
2015,05,01,09,01,12.40
2015,05,01,09,02,12.50
2015,05,01,09,03,12.60
2015,05,01,09,04,12.60
2015,05,01,09,05,12.60
2015,05,01,09,06,12.60
2015,05,01,09,07,12.70
2015,05,01,09,08,12.70
2015,05,01,09,09,12.80
2015,05,01,09,10,12.80
2015,05,01,09,11,12.80
2015,05,01,09,12,12.80
2015,05,01,09,13,12.80
2015,05,01,09,14,12.80
2015,05,01,09,15,12.80
2015,05,01,09,16,12.80
2015,05,01,09,17,12.80
2015,05,01,09,18,12.80
2015,05,01,09,19,12.90
2015,05,01,09,20,13.00
2015,05,01,09,21,13.10
2015,05,01,09,22,13.10
2015,05,01,09,23,13.20
2015,05,01,09,24,13.30
2015,05,01,09,25,13.30
2015,05,01,09,26,13.30
2015,05,01,09,27,13.20
2015,05,01,09,28,13.30
2015,05,01,09,29,13.30
2015,05,01,09,30,13.30
2015,05,01,09,31,13.30
2015,05,01,09,32,13.30
2015,05,01,09,33,13.40
2015,05,01,09,34,13.50
2015,05,01,09,35,13.50
2015,05,01,09,36,13.50
2015,05,01,09,37,13.40
2015,05,01,09,38,13.40
2015,05,01,09,39,13.40
2015,05,01,09,40,13.50
2015,05,01,09,41,13.60
2015,05,01,09,42,13.70
2015,05,01,09,43,13.70
2015,05,01,09,44,13.70
2015,05,01,09,45,13.70
2015,05,01,09,46,13.90
2015,05,01,09,47,13.90
2015,05,01,09,48,13.90
2015,05,01,09,49,14.00
2015,05,01,09,50,14.00
2015,05,01,09,51,14.00
2015,05,01,09,52,14.10
2015,05,01,09,53,14.10
2015,05,01,09,54,14.20
2015,05,01,09,55,14.20
2015,05,01,09,56,14.20
2015,05,01,09,57,14.20
2015,05,01,09,58,14.20
2015,05,01,09,59,14.20
2015,05,01,10,00,14.20
2015,05,01,10,01,14.30
2015,05,01,10,02,14.40
2015,05,01,10,03,14.40
2015,05,01,10,04,14.40
2015,05,01,10,05,14.30
2015,05,01,10,06,14.30
2015,05,01,10,07,14.20
2015,05,01,10,08,14.20
2015,05,01,10,09,14.20
2015,05,01,10,10,14.30
2015,05,01,10,11,14.50
2015,05,01,10,12,14.60
2015,05,01,10,13,14.70
2015,05,01,10,14,14.60
2015,05,01,10,15,14.60
2015,05,01,10,16,14.70
2015,05,01,10,17,14.80
2015,05,01,10,18,14.80
2015,05,01,10,19,14.80
2015,05,01,10,20,14.80
2015,05,01,10,21,14.80
2015,05,01,10,22,14.80
2015,05,01,10,23,14.80
2015,05,01,10,24,14.90
2015,05,01,10,25,15.00
2015,05,01,10,26,15.00
2015,05,01,10,27,15.00
2015,05,01,10,28,15.00
2015,05,01,10,29,15.10
2015,05,01,10,30,15.10
2015,05,01,10,31,15.10
2015,05,01,10,32,15.00
2015,05,01,10,33,15.00
2015,05,01,10,34,14.90
2015,05,01,10,35,15.00
2015,05,01,10,36,15.00
2015,05,01,10,37,15.10
2015,05,01,10,38,15.10
2015,05,01,10,39,15.10
2015,05,01,10,40,15.10
2015,05,01,10,41,15.10
2015,05,01,10,42,15.10
2015,05,01,10,43,15.10
2015,05,01,10,44,15.20
2015,05,01,10,45,15.30
2015,05,01,10,46,15.30
2015,05,01,10,47,15.30
2015,05,01,10,48,15.30
2015,05,01,10,49,15.40
2015,05,01,10,50,15.40
2015,05,01,10,51,15.40
2015,05,01,10,52,15.50
2015,05,01,10,53,15.50
2015,05,01,10,54,15.40
2015,05,01,10,55,15.50
2015,05,01,10,56,15.50
2015,05,01,10,57,15.60
2015,05,01,10,58,15.70
2015,05,01,10,59,15.80
2015,05,01,11,00,15.80
2015,05,01,11,01,15.70
2015,05,01,11,02,15.70
2015,05,01,11,03,15.60
2015,05,01,11,04,15.60
2015,05,01,11,05,15.60
2015,05,01,11,06,15.50
2015,05,01,11,07,15.50
2015,05,01,11,08,15.40
2015,05,01,11,09,15.30
2015,05,01,11,10,15.30
2015,05,01,11,11,15.30
2015,05,01,11,12,15.40
2015,05,01,11,13,15.40
2015,05,01,11,14,15.30
2015,05,01,11,15,15.20
2015,05,01,11,16,15.20
2015,05,01,11,17,15.30
2015,05,01,11,18,15.30
2015,05,01,11,19,15.30
2015,05,01,11,20,15.30
2015,05,01,11,21,15.30
2015,05,01,11,22,15.30
2015,05,01,11,23,15.40
2015,05,01,11,24,15.50
2015,05,01,11,25,15.50
2015,05,01,11,26,15.40
2015,05,01,11,27,15.40
2015,05,01,11,28,15.50
2015,05,01,11,29,15.50
2015,05,01,11,30,15.50
2015,05,01,11,31,15.50
2015,05,01,11,32,15.60
2015,05,01,11,33,15.80
2015,05,01,11,34,15.80
2015,05,01,11,35,15.80
2015,05,01,11,36,15.80
2015,05,01,11,37,15.90
2015,05,01,11,38,16.00
2015,05,01,11,39,16.10
2015,05,01,11,40,16.10
2015,05,01,11,41,16.10
2015,05,01,11,42,16.10
2015,05,01,11,43,16.20
2015,05,01,11,44,16.20
2015,05,01,11,45,16.20
2015,05,01,11,46,16.20
2015,05,01,11,47,16.20
2015,05,01,11,48,16.20
2015,05,01,11,49,16.30
2015,05,01,11,50,16.40
2015,05,01,11,51,16.50
2015,05,01,11,52,16.60
2015,05,01,11,53,16.60
2015,05,01,11,54,16.70
2015,05,01,11,55,16.70
2015,05,01,11,56,16.60
2015,05,01,11,57,16.50
2015,05,01,11,58,16.40
2015,05,01,11,59,16.30
2015,05,01,12,00,16.30
2015,05,01,12,01,16.10
2015,05,01,12,02,16.00
2015,05,01,12,03,15.90
2015,05,01,12,04,15.90
2015,05,01,12,05,15.90
2015,05,01,12,06,15.80
2015,05,01,12,07,15.70
2015,05,01,12,08,15.60
2015,05,01,12,09,15.60
2015,05,01,12,10,15.60
2015,05,01,12,11,15.60
2015,05,01,12,12,15.60
2015,05,01,12,13,15.50
2015,05,01,12,14,15.50
2015,05,01,12,15,15.40
2015,05,01,12,16,15.30
2015,05,01,12,17,15.30
2015,05,01,12,18,15.30
2015,05,01,12,19,15.30
2015,05,01,12,20,15.30
2015,05,01,12,21,15.30
2015,05,01,12,22,15.30
2015,05,01,12,23,15.40
2015,05,01,12,24,15.40
2015,05,01,12,25,15.40
2015,05,01,12,26,15.40
2015,05,01,12,27,15.30
2015,05,01,12,28,15.30
2015,05,01,12,29,15.30
2015,05,01,12,30,15.30
2015,05,01,12,31,15.30
2015,05,01,12,32,15.30
2015,05,01,12,33,15.30
2015,05,01,12,34,15.30
2015,05,01,12,35,15.40
2015,05,01,12,36,15.50
2015,05,01,12,37,15.50
2015,05,01,12,38,15.60
2015,05,01,12,39,15.70
2015,05,01,12,40,15.70
2015,05,01,12,41,15.70
2015,05,01,12,42,15.70
2015,05,01,12,43,15.60
2015,05,01,12,44,15.50
2015,05,01,12,45,15.50
2015,05,01,12,46,15.40
2015,05,01,12,47,15.50
2015,05,01,12,48,15.50
2015,05,01,12,49,15.60
2015,05,01,12,50,15.60
2015,05,01,12,51,15.60
2015,05,01,12,52,15.70
2015,05,01,12,53,15.80
2015,05,01,12,54,15.80
2015,05,01,12,55,15.80
2015,05,01,12,56,15.90
2015,05,01,12,57,16.00
2015,05,01,12,58,16.10
2015,05,01,12,59,16.10
2015,05,01,13,00,16.20
2015,05,01,13,01,16.30
2015,05,01,13,02,16.30
2015,05,01,13,03,16.20
2015,05,01,13,04,16.10
2015,05,01,13,05,16.10
2015,05,01,13,06,16.20
2015,05,01,13,07,16.20
2015,05,01,13,08,16.30
2015,05,01,13,09,16.30
2015,05,01,13,10,16.40
2015,05,01,13,11,16.60
2015,05,01,13,12,16.80
2015,05,01,13,13,16.80
2015,05,01,13,14,16.80
2015,05,01,13,15,16.70
2015,05,01,13,16,16.60
2015,05,01,13,17,16.70
2015,05,01,13,18,16.70
2015,05,01,13,19,16.80
2015,05,01,13,20,16.90
2015,05,01,13,21,17.00
2015,05,01,13,22,17.20
2015,05,01,13,23,17.30
2015,05,01,13,24,17.30
2015,05,01,13,25,17.30
2015,05,01,13,26,17.30
2015,05,01,13,27,17.30
2015,05,01,13,28,17.40
2015,05,01,13,29,17.50
2015,05,01,13,30,17.60
2015,05,01,13,31,17.70
2015,05,01,13,32,17.80
2015,05,01,13,33,17.90
2015,05,01,13,34,17.90
2015,05,01,13,35,18.00
2015,05,01,13,36,18.20
2015,05,01,13,37,18.20
2015,05,01,13,38,18.20
2015,05,01,13,39,18.00
2015,05,01,13,40,17.90
2015,05,01,13,41,17.80
2015,05,01,13,42,17.80
2015,05,01,13,43,17.80
2015,05,01,13,44,17.90
2015,05,01,13,45,17.90
2015,05,01,13,46,18.00
2015,05,01,13,47,18.20
2015,05,01,13,48,18.40
2015,05,01,13,49,18.50
2015,05,01,13,50,18.50
2015,05,01,13,51,18.40
2015,05,01,13,52,18.20
2015,05,01,13,53,18.10
2015,05,01,13,54,17.90
2015,05,01,13,55,17.80
2015,05,01,13,56,17.60
2015,05,01,13,57,17.40
2015,05,01,13,58,17.30
2015,05,01,13,59,17.30
2015,05,01,14,00,17.30
2015,05,01,14,01,17.30
2015,05,01,14,02,17.20
2015,05,01,14,03,17.10
2015,05,01,14,04,17.00
2015,05,01,14,05,16.90
2015,05,01,14,06,16.90
2015,05,01,14,07,16.90
2015,05,01,14,08,17.00
2015,05,01,14,09,17.10
2015,05,01,14,10,17.30
2015,05,01,14,11,17.40
2015,05,01,14,12,17.50
2015,05,01,14,13,17.60
2015,05,01,14,14,17.50
2015,05,01,14,15,17.50
2015,05,01,14,16,17.50
2015,05,01,14,17,17.70
2015,05,01,14,18,17.80
2015,05,01,14,19,17.90
2015,05,01,14,20,18.10
2015,05,01,14,21,18.20
2015,05,01,14,22,18.40
2015,05,01,14,23,18.50
2015,05,01,14,24,18.50
2015,05,01,14,25,18.50
2015,05,01,14,26,18.50
2015,05,01,14,27,18.40
2015,05,01,14,28,18.40
2015,05,01,14,29,18.20
2015,05,01,14,30,18.10
2015,05,01,14,31,18.10
2015,05,01,14,32,18.10
2015,05,01,14,33,18.20
2015,05,01,14,34,18.10
2015,05,01,14,35,18.00
2015,05,01,14,36,17.80
2015,05,01,14,37,17.60
2015,05,01,14,38,17.40
2015,05,01,14,39,17.40
2015,05,01,14,40,17.50
2015,05,01,14,41,17.50
2015,05,01,14,42,17.50
2015,05,01,14,43,17.60
2015,05,01,14,44,17.60
2015,05,01,14,45,17.60
2015,05,01,14,46,17.60
2015,05,01,14,47,17.60
2015,05,01,14,48,17.60
2015,05,01,14,49,17.60
2015,05,01,14,50,17.60
2015,05,01,14,51,17.70
2015,05,01,14,52,17.80
2015,05,01,14,53,17.90
2015,05,01,14,54,17.90
2015,05,01,14,55,17.90
2015,05,01,14,56,18.10
2015,05,01,14,57,18.10
2015,05,01,14,58,18.00
2015,05,01,14,59,17.90
2015,05,01,15,00,17.90
2015,05,01,15,01,17.90
2015,05,01,15,02,17.90
2015,05,01,15,03,17.70
2015,05,01,15,04,17.60
2015,05,01,15,05,17.40
2015,05,01,15,06,17.40
2015,05,01,15,07,17.40
2015,05,01,15,08,17.50
2015,05,01,15,09,17.50
2015,05,01,15,10,17.40
2015,05,01,15,11,17.40
2015,05,01,15,12,17.40
2015,05,01,15,13,17.40
2015,05,01,15,14,17.50
2015,05,01,15,15,17.50
2015,05,01,15,16,17.50
2015,05,01,15,17,17.60
2015,05,01,15,18,17.70
2015,05,01,15,19,17.70
2015,05,01,15,20,17.70
2015,05,01,15,21,17.70
2015,05,01,15,22,17.80
2015,05,01,15,23,17.70
2015,05,01,15,24,17.70
2015,05,01,15,25,17.80
2015,05,01,15,26,17.70
2015,05,01,15,27,17.80
2015,05,01,15,28,17.80
2015,05,01,15,29,17.70
2015,05,01,15,30,17.60
2015,05,01,15,31,17.50
2015,05,01,15,32,17.50
2015,05,01,15,33,17.30
2015,05,01,15,34,17.30
2015,05,01,15,35,17.30
2015,05,01,15,36,17.20
2015,05,01,15,37,17.30
2015,05,01,15,38,17.30
2015,05,01,15,39,17.30
2015,05,01,15,40,17.20
2015,05,01,15,41,17.20
2015,05,01,15,42,17.10
2015,05,01,15,43,17.10
2015,05,01,15,44,17.00
2015,05,01,15,45,16.80
2015,05,01,15,46,16.70
2015,05,01,15,47,16.60
2015,05,01,15,48,16.50
2015,05,01,15,49,16.40
2015,05,01,15,50,16.40
2015,05,01,15,51,16.40
2015,05,01,15,52,16.50
2015,05,01,15,53,16.60
2015,05,01,15,54,16.60
2015,05,01,15,55,16.60
2015,05,01,15,56,16.60
2015,05,01,15,57,16.70
2015,05,01,15,58,16.60
2015,05,01,15,59,16.60
2015,05,01,16,00,16.50
2015,05,01,16,01,16.40
2015,05,01,16,02,16.30
2015,05,01,16,03,16.30
2015,05,01,16,04,16.40
2015,05,01,16,05,16.40
2015,05,01,16,06,16.40
2015,05,01,16,07,16.40
2015,05,01,16,08,16.40
2015,05,01,16,09,16.40
2015,05,01,16,10,16.40
2015,05,01,16,11,16.40
2015,05,01,16,12,16.40
2015,05,01,16,13,16.30
2015,05,01,16,14,16.30
2015,05,01,16,15,16.30
2015,05,01,16,16,16.30
2015,05,01,16,17,16.30
2015,05,01,16,18,16.30
2015,05,01,16,19,16.40
2015,05,01,16,20,16.40
2015,05,01,16,21,16.40
2015,05,01,16,22,16.40
2015,05,01,16,23,16.40
2015,05,01,16,24,16.40
2015,05,01,16,25,16.40
2015,05,01,16,26,16.40
2015,05,01,16,27,16.40
2015,05,01,16,28,16.60
2015,05,01,16,29,16.60
2015,05,01,16,30,16.60
2015,05,01,16,31,16.50
2015,05,01,16,32,16.40
2015,05,01,16,33,16.40
2015,05,01,16,34,16.40
2015,05,01,16,35,16.40
2015,05,01,16,36,16.40
2015,05,01,16,37,16.30
2015,05,01,16,38,16.30
2015,05,01,16,39,16.30
2015,05,01,16,40,16.30
2015,05,01,16,41,16.30
2015,05,01,16,42,16.30
2015,05,01,16,43,16.30
2015,05,01,16,44,16.30
2015,05,01,16,45,16.40
2015,05,01,16,46,16.40
2015,05,01,16,47,16.50
2015,05,01,16,48,16.60
2015,05,01,16,49,16.70
2015,05,01,16,50,16.70
2015,05,01,16,51,16.70
2015,05,01,16,52,16.80
2015,05,01,16,53,16.80
2015,05,01,16,54,16.80
2015,05,01,16,55,16.70
2015,05,01,16,56,16.70
2015,05,01,16,57,16.70
2015,05,01,16,58,16.70
2015,05,01,16,59,16.70
2015,05,01,17,00,16.70
2015,05,01,17,01,16.70
2015,05,01,17,02,16.70
2015,05,01,17,03,16.70
2015,05,01,17,04,16.70
2015,05,01,17,05,16.70
2015,05,01,17,06,16.70
2015,05,01,17,07,16.80
2015,05,01,17,08,16.80
2015,05,01,17,09,16.80
2015,05,01,17,10,16.80
2015,05,01,17,11,16.80
2015,05,01,17,12,16.80
2015,05,01,17,13,16.70
2015,05,01,17,14,16.70
2015,05,01,17,15,16.70
2015,05,01,17,16,16.70
2015,05,01,17,17,16.70
2015,05,01,17,18,16.70
2015,05,01,17,19,16.70
2015,05,01,17,20,16.60
2015,05,01,17,21,16.60
2015,05,01,17,22,16.60
2015,05,01,17,23,16.50
2015,05,01,17,24,16.40
2015,05,01,17,25,16.40
2015,05,01,17,26,16.40
2015,05,01,17,27,16.40
2015,05,01,17,28,16.40
2015,05,01,17,29,16.40